GW4629 Weather Reports


Display with metric or nautical units.
time (UTC)temp
F
wind
direction
speed
MPH
gust
MPH
rain 1hr
in
rain 24hr
in
rain mn
in
humidity
%
barometer
mb
20260507003713 32 168 2.0 3.0 0.00 0.21 0.21 99 1018.8
20260507003214 32 168 2.0 3.0 0.00 0.21 0.21 99 1018.8
20260507002710 32 166 0.0 1.0 0.00 0.21 0.21 99 1018.7
20260507002206 32 166 0.0 1.0 0.00 0.21 0.21 99 1018.7
20260507001703 32 205 2.0 2.0 0.00 0.21 0.21 99 1018.8
20260507001200 32 205 2.0 2.0 0.00 0.21 0.21 99 1018.8
20260507000656 32 170 2.0 2.0 0.00 0.21 0.21 99 1018.7
20260507000152 32 170 2.0 2.0 0.00 0.21 0.21 99 1018.7
20260506235650 32 145 1.0 1.0 0.00 0.21 0.21 99 1018.9
20260506235145 32 145 1.0 1.0 0.00 0.21 0.21 99 1018.9
20260506234642 32 178 1.0 1.0 0.00 0.21 0.21 99 1018.9
20260506234139 32 178 1.0 1.0 0.00 0.21 0.21 99 1018.9
20260506233636 33 184 1.0 2.0 0.00 0.21 0.21 99 1019.1
20260506233133 33 184 1.0 2.0 0.00 0.21 0.21 99 1019.1
20260506232629 33 220 1.0 1.0 0.00 0.21 0.21 99 1019.1
20260506232125 33 220 1.0 1.0 0.00 0.21 0.21 99 1019.1
20260506231622 33 135 1.0 1.0 0.00 0.21 0.21 99 1019.1
20260506231120 33 135 1.0 1.0 0.00 0.21 0.21 99 1019.1
20260506230617 33 124 0.0 0.0 0.00 0.21 0.21 99 1018.7
20260506230114 33 124 0.0 0.0 0.00 0.21 0.21 99 1018.7
20260506225610 33 96 0.0 0.0 0.00 0.21 0.21 99 1018.8
20260506225107 33 96 0.0 0.0 0.00 0.21 0.21 99 1018.8
20260506224604 33 186 0.0 1.0 0.00 0.21 0.21 99 1018.8
20260506224100 33 186 0.0 1.0 0.00 0.21 0.21 99 1018.8
20260506223556 32 192 1.0 1.0 0.00 0.21 0.21 99 1018.9
20260506223053 32 192 1.0 1.0 0.00 0.21 0.21 99 1018.9
20260506222550 32 161 2.0 2.0 0.00 0.21 0.21 99 1018.9
20260506222046 32 161 2.0 2.0 0.00 0.21 0.21 99 1018.9
20260506221544 32 177 0.0 1.0 0.00 0.21 0.21 99 1018.9
20260506221042 32 177 0.0 1.0 0.00 0.21 0.21 99 1018.9
20260506220537 32 218 2.0 2.0 0.00 0.21 0.21 99 1019.1
20260506220033 32 218 2.0 2.0 0.00 0.21 0.21 99 1019.1
20260506215530 32 261 1.0 1.0 0.00 0.21 0.21 99 1019.1
20260506215026 32 261 1.0 1.0 0.00 0.21 0.21 99 1019.1
20260506214523 31 19 2.0 2.0 0.00 0.21 0.21 99 1019.2
20260506214020 31 19 2.0 2.0 0.00 0.21 0.21 99 1019.2
20260506213518 32 283 4.0 4.0 0.00 0.21 0.21 99 1019.6
20260506213015 32 283 4.0 4.0 0.00 0.21 0.21 99 1019.6
20260506212511 32 15 2.0 2.0 0.00 0.21 0.21 99 1019.6
20260506212007 32 15 2.0 2.0 0.00 0.21 0.21 99 1019.6
20260506211503 32 135 1.0 1.0 0.00 0.21 0.21 99 1019.6
20260506211000 32 135 1.0 1.0 0.00 0.21 0.21 99 1019.6
20260506210456 31 60 2.0 2.0 0.00 0.21 0.21 99 1019.7
20260506205953 31 60 2.0 2.0 0.00 0.21 0.21 99 1019.7
20260506205449 31 268 3.0 3.0 0.00 0.21 0.21 99 1019.9
20260506204945 31 268 3.0 3.0 0.00 0.21 0.21 99 1019.9
20260506204443 30 340 1.0 2.0 0.00 0.21 0.21 99 1019.7
20260506203941 30 340 1.0 2.0 0.00 0.21 0.21 99 1019.7
20260506203438 29 257 4.0 4.0 0.12 0.21 0.21 99 1019.9
20260506202935 29 257 4.0 4.0 0.12 0.21 0.21 99 1019.9
20260506202432 29 277 6.0 7.0 0.05 0.19 0.19 99 1019.8
20260506201928 29 277 6.0 7.0 0.05 0.19 0.19 99 1019.8
20260506201426 29 266 4.0 6.0 0.07 0.18 0.18 99 1020.2
20260506200922 29 266 4.0 6.0 0.07 0.18 0.18 99 1020.2
20260506200418 28 259 5.0 6.0 0.12 0.17 0.17 99 1020.3
20260506195915 28 259 5.0 6.0 0.12 0.17 0.17 99 1020.3
20260506195412 29 329 3.0 3.0 0.07 0.15 0.15 99 1020.2
20260506194909 29 329 3.0 3.0 0.07 0.15 0.15 99 1020.2
20260506194406 32 280 4.0 4.0 0.05 0.14 0.14 99 1020.2
20260506193903 32 280 4.0 4.0 0.05 0.14 0.14 99 1020.2
20260506193400 32 258 1.0 2.0 0.12 0.13 0.13 99 1020.2
20260506192856 32 258 1.0 2.0 0.12 0.13 0.13 99 1020.2
20260506192353 32 261 2.0 2.0 0.12 0.11 0.11 99 1020.4
20260506191850 32 261 2.0 2.0 0.12 0.11 0.11 99 1020.4
20260506191346 31 232 2.0 3.0 0.12 0.09 0.09 99 1020.3
20260506190843 31 232 2.0 3.0 0.12 0.09 0.09 99 1020.3
20260506190339 30 234 2.0 2.0 0.12 0.07 0.07 99 1020.3
20260506185837 30 234 2.0 2.0 0.12 0.07 0.07 99 1020.3
20260506185334 30 259 3.0 3.0 0.19 0.05 0.05 99 1020.6
20260506184831 30 259 3.0 3.0 0.19 0.05 0.05 99 1020.6
20260506184328 28 94 1.0 1.0 0.07 0.02 0.02 99 1020.3
20260506183825 28 94 1.0 1.0 0.07 0.02 0.02 99 1020.3
20260506183320 29 354 2.0 2.0 0.07 0.02 0.02 99 1020.7
20260506182818 29 354 2.0 2.0 0.07 0.02 0.02 99 1020.7
20260506182315 31 242 2.0 3.0 0.00 0.01 0.01 99 1020.7
20260506181813 31 242 2.0 3.0 0.00 0.01 0.01 99 1020.7
20260506181310 31 280 4.0 4.0 0.00 0.01 0.01 99 1021.1
20260506180807 31 280 4.0 4.0 0.00 0.01 0.01 99 1021.1
20260506180303 29 282 1.0 2.0 0.05 0.01 0.01 99 1020.8
20260506175759 29 282 1.0 2.0 0.05 0.01 0.01 99 1020.8
20260506175256 27 280 2.0 2.0 0.00 0.00 0.00 99 1020.7
20260506174754 27 280 2.0 2.0 0.00 0.00 0.00 99 1020.7
20260506174251 28 230 5.0 7.0 0.00 0.00 0.00 99 1020.7
20260506173749 28 230 5.0 7.0 0.00 0.00 0.00 99 1020.7
20260506173245 28 219 3.0 3.0 0.00 0.00 0.00 99 1020.6
20260506172742 28 219 3.0 3.0 0.00 0.00 0.00 99 1020.6
20260506172238 26 242 4.0 6.0 0.00 0.00 0.00 99 1020.4
20260506171736 26 242 4.0 6.0 0.00 0.00 0.00 99 1020.4
20260506171233 27 213 5.0 7.0 0.00 0.00 0.00 99 1020.6
20260506170731 27 213 5.0 7.0 0.00 0.00 0.00 99 1020.6
20260506170222 28 197 2.0 2.0 0.00 0.00 0.00 99 1020.7
20260506165720 28 197 2.0 2.0 0.00 0.00 0.00 99 1020.7
20260506165217 31 244 2.0 3.0 0.00 0.00 0.00 99 1020.4
20260506164715 31 244 2.0 3.0 0.00 0.00 0.00 99 1020.4
20260506164211 32 252 1.0 2.0 0.00 0.00 0.00 99 1020.3
20260506163708 32 252 1.0 2.0 0.00 0.00 0.00 99 1020.3
20260506163203 32 207 1.0 1.0 0.00 0.00 0.00 99 1020.1
20260506162659 32 207 1.0 1.0 0.00 0.00 0.00 99 1020.1
20260506162157 32 212 2.0 2.0 0.00 0.00 0.00 99 1020.2
20260506161654 32 212 2.0 2.0 0.00 0.00 0.00 99 1020.2
20260506161150 32 222 2.0 3.0 0.00 0.00 0.00 99 1020.2
20260506160648 32 222 2.0 3.0 0.00 0.00 0.00 99 1020.2
20260506160145 32 205 0.0 0.0 0.00 0.00 0.00 99 1020.1
20260506155643 32 205 0.0 0.0 0.00 0.00 0.00 99 1020.1
20260506153703 32 150 0.0 0.0 0.00 0.00 0.00 99 1019.9
20260506153200 32 150 0.0 0.0 0.00 0.00 0.00 99 1019.9
20260506152657 32 150 0.0 0.0 0.00 0.00 0.00 99 1019.9
20260506152154 32 207 1.0 1.0 0.00 0.00 0.00 99 1019.9
20260506151653 32 207 1.0 1.0 0.00 0.00 0.00 99 1019.9
20260506151149 31 165 1.0 1.0 0.00 0.00 0.00 99 1019.8
20260506150646 31 165 1.0 1.0 0.00 0.00 0.00 99 1019.8
20260506150143 30 193 1.0 1.0 0.00 0.00 0.00 99 1019.7
20260506145640 30 193 1.0 1.0 0.00 0.00 0.00 99 1019.7
20260506145137 29 254 2.0 2.0 0.00 0.00 0.00 99 1019.6
20260506144635 29 254 2.0 2.0 0.00 0.00 0.00 99 1019.6
20260506143624 27 226 1.0 1.0 0.00 0.00 0.00 99 1019.8
20260506143121 27 226 1.0 1.0 0.00 0.00 0.00 99 1019.8
20260506142620 27 225 1.0 2.0 0.00 0.00 0.00 99 1019.8
20260506142118 27 225 1.0 2.0 0.00 0.00 0.00 99 1019.8
20260506141615 25 225 1.0 2.0 0.00 0.00 0.00 99 1019.7
20260506141113 25 225 1.0 2.0 0.00 0.00 0.00 99 1019.7
20260506140610 23 225 2.0 2.0 0.00 0.00 0.00 99 1019.4
20260506140107 23 225 2.0 2.0 0.00 0.00 0.00 99 1019.4
20260506135604 23 225 1.0 2.0 0.00 0.00 0.00 99 1019.3
20260506135100 23 225 1.0 2.0 0.00 0.00 0.00 99 1019.3
20260506134557 23 225 2.0 2.0 0.00 0.00 0.00 99 1019.6
20260506134053 23 225 2.0 2.0 0.00 0.00 0.00 99 1019.6
20260506133550 23 225 3.0 3.0 0.00 0.00 0.00 99 1019.1
20260506133047 23 225 3.0 3.0 0.00 0.00 0.00 99 1019.1
20260506132544 23 225 2.0 3.0 0.00 0.00 0.00 99 1018.9
20260506132042 23 225 2.0 3.0 0.00 0.00 0.00 99 1018.9
20260506131538 23 225 4.0 4.0 0.00 0.00 0.00 99 1018.8
20260506131035 23 225 4.0 4.0 0.00 0.00 0.00 99 1018.8
20260506130532 22 225 5.0 6.0 0.00 0.00 0.00 99 1018.6
20260506130029 22 225 5.0 6.0 0.00 0.00 0.00 99 1018.6
20260506125527 23 225 4.0 4.0 0.00 0.00 0.00 99 1018.3
20260506125025 23 225 4.0 4.0 0.00 0.00 0.00 99 1018.3
20260506124523 22 225 3.0 4.0 0.00 0.00 0.00 99 1018.3
20260506124020 22 225 3.0 4.0 0.00 0.00 0.00 99 1018.3
20260506123518 22 225 1.0 2.0 0.00 0.00 0.00 99 1018.4
20260506123016 22 225 1.0 2.0 0.00 0.00 0.00 99 1018.4
20260506122512 22 225 2.0 2.0 0.00 0.00 0.00 99 1017.9
20260506122011 22 225 2.0 2.0 0.00 0.00 0.00 99 1017.9
20260506121508 22 225 1.0 1.0 0.00 0.00 0.00 99 1018.3
20260506121004 22 225 1.0 1.0 0.00 0.00 0.00 99 1018.3
20260506120502 22 225 0.0 0.0 0.00 0.00 0.00 99 1018.1
20260506115959 22 225 0.0 0.0 0.00 0.00 0.00 99 1018.1
20260506115456 22 225 1.0 1.0 0.00 0.00 0.00 99 1017.9
20260506114955 22 225 1.0 1.0 0.00 0.00 0.00 99 1017.9
20260506114452 22 225 0.0 0.0 0.00 0.00 0.00 99 1018.1
20260506113950 22 225 0.0 0.0 0.00 0.00 0.00 99 1018.1
20260506113448 22 225 0.0 0.0 0.00 0.00 0.00 99 1018.1
20260506112944 22 225 0.0 0.0 0.00 0.00 0.00 99 1018.1
20260506112442 22 225 2.0 2.0 0.00 0.00 0.00 99 1017.8
20260506111939 22 225 2.0 2.0 0.00 0.00 0.00 99 1017.8
20260506111437 22 225 0.0 0.0 0.00 0.00 0.00 99 1017.6
20260506110934 22 225 0.0 0.0 0.00 0.00 0.00 99 1017.6
20260506110432 23 225 0.0 0.0 0.00 0.00 0.00 99 1017.7
20260506105928 23 225 0.0 0.0 0.00 0.00 0.00 99 1017.7
20260506105424 23 225 0.0 0.0 0.00 0.00 0.00 99 1017.7
20260506104922 23 225 0.0 0.0 0.00 0.00 0.00 99 1017.7
20260506104420 23 225 0.0 0.0 0.00 0.00 0.00 99 1017.6
20260506103918 23 225 0.0 0.0 0.00 0.00 0.00 99 1017.6
20260506103415 23 225 1.0 2.0 0.00 0.00 0.00 99 1017.4
20260506102912 23 225 1.0 2.0 0.00 0.00 0.00 99 1017.4
20260506102410 23 225 2.0 2.0 0.00 0.00 0.00 99 1017.4
20260506101907 23 225 2.0 2.0 0.00 0.00 0.00 99 1017.4
20260506101403 23 225 0.0 0.0 0.00 0.00 0.00 99 1017.2
20260506100900 23 225 0.0 0.0 0.00 0.00 0.00 99 1017.2
20260506100359 23 225 1.0 2.0 0.00 0.00 0.00 99 1017.6
20260506095856 23 225 1.0 2.0 0.00 0.00 0.00 99 1017.6
20260506095354 23 225 0.0 0.0 0.00 0.00 0.00 99 1017.4
20260506094850 23 225 0.0 0.0 0.00 0.00 0.00 99 1017.4
20260506094348 23 225 1.0 1.0 0.00 0.00 0.00 99 1017.4
20260506093841 23 225 1.0 1.0 0.00 0.00 0.00 99 1017.4
20260506093338 23 225 2.0 3.0 0.00 0.00 0.00 99 1017.7
20260506092836 23 225 2.0 3.0 0.00 0.00 0.00 99 1017.7
20260506092334 23 225 2.0 2.0 0.00 0.00 0.00 99 1017.4
20260506091830 23 225 2.0 2.0 0.00 0.00 0.00 99 1017.4
20260506091328 23 225 4.0 6.0 0.00 0.00 0.00 99 1017.3
20260506090825 23 225 4.0 6.0 0.00 0.00 0.00 99 1017.3
20260506090322 23 225 2.0 4.0 0.00 0.00 0.00 99 1017.4
20260506085819 23 225 2.0 4.0 0.00 0.00 0.00 99 1017.4
20260506085315 23 225 3.0 4.0 0.00 0.00 0.00 99 1017.3
20260506084812 23 225 3.0 4.0 0.00 0.00 0.00 99 1017.3
20260506084308 23 224 6.0 9.0 0.00 0.00 0.00 99 1017.4
20260506083805 23 224 6.0 9.0 0.00 0.00 0.00 99 1017.4
20260506083303 23 223 5.0 6.0 0.00 0.00 0.00 99 1017.2
20260506082800 23 223 5.0 6.0 0.00 0.00 0.00 99 1017.2
20260506082256 24 223 3.0 3.0 0.00 0.00 0.00 99 1017.6
20260506081753 24 223 3.0 3.0 0.00 0.00 0.00 99 1017.6
20260506081251 24 223 3.0 3.0 0.00 0.00 0.00 99 1017.7
20260506080749 24 223 3.0 3.0 0.00 0.00 0.00 99 1017.7
20260506080245 24 223 2.0 3.0 0.00 0.00 0.00 99 1017.6
20260506073228 24 223 2.0 2.0 0.00 0.00 0.00 99 1017.7
20260506072725 24 223 2.0 2.0 0.00 0.00 0.00 99 1017.7
20260506072223 24 223 2.0 2.0 0.00 0.00 0.00 99 1017.7
20260506071720 24 223 2.0 2.0 0.00 0.00 0.00 99 1017.7
20260506071218 24 223 4.0 4.0 0.00 0.00 0.00 99 1017.7
20260506070715 24 223 4.0 4.0 0.00 0.00 0.00 99 1017.7
20260506070212 24 223 4.0 4.0 0.00 0.00 0.00 99 1017.8
20260506062149 24 223 3.0 4.0 0.00 0.00 0.00 99 1017.8
20260506061644 24 223 3.0 4.0 0.00 0.00 0.00 99 1017.8
20260506061143 24 223 4.0 4.0 0.00 0.00 0.00 99 1017.7
20260506060641 24 223 4.0 4.0 0.00 0.00 0.00 99 1017.7
20260506060138 24 223 5.0 7.0 0.00 0.02 0.02 99 1017.3
20260506051109 24 170 9.0 10.0 0.00 0.02 0.02 99 1016.9
20260506050608 24 170 9.0 10.0 0.00 0.02 0.02 99 1016.9
20260506050104 25 144 9.0 11.0 0.00 0.02 0.02 99 1016.7
20260506045058 25 143 0.0 0.0 0.00 0.02 0.02 99 1016.9
20260506044556 25 143 0.0 0.0 0.00 0.02 0.02 99 1016.9
20260506044052 25 143 0.0 0.0 0.00 0.02 0.02 99 1016.9
20260506043549 25 143 0.0 0.0 0.00 0.02 0.02 99 1016.9
20260506043047 26 143 0.0 0.0 0.00 0.02 0.02 99 1016.9
20260506042546 26 143 0.0 0.0 0.00 0.02 0.02 99 1016.9
20260506042043 26 143 0.0 0.0 0.00 0.02 0.02 99 1016.7
20260506041543 26 143 0.0 0.0 0.00 0.02 0.02 99 1016.7
20260506041039 26 143 0.0 0.0 0.00 0.02 0.02 99 1016.8
20260506040537 26 143 0.0 0.0 0.00 0.02 0.02 99 1016.8
20260506040032 26 143 0.0 0.0 0.00 0.02 0.02 99 1017.1
20260506035530 26 143 0.0 0.0 0.00 0.02 0.02 99 1017.1
20260506035027 26 143 0.0 0.0 0.00 0.02 0.02 99 1016.3
20260506034524 26 143 0.0 0.0 0.00 0.02 0.02 99 1016.4
20260506034021 26 143 0.0 0.0 0.00 0.02 0.02 99 1016.4
20260506033518 26 143 0.0 0.0 0.00 0.02 0.02 99 1016.4
20260506033015 26 143 0.0 0.0 0.00 0.02 0.02 99 1016.4
20260506032512 26 143 0.0 0.0 0.00 0.02 0.02 99 1016.2
20260506032009 26 143 0.0 0.0 0.00 0.02 0.02 99 1016.2
20260506031507 25 143 0.0 0.0 0.00 0.02 0.02 99 1016.3
20260506031004 25 143 0.0 0.0 0.00 0.02 0.02 99 1016.3
20260506030502 26 143 0.0 0.0 0.00 0.02 0.02 99 1016.2
20260506025959 26 143 0.0 0.0 0.00 0.02 0.02 99 1016.2
20260506025455 25 143 0.0 0.0 0.00 0.02 0.02 99 1015.9
20260506024951 25 143 0.0 0.0 0.00 0.02 0.02 99 1015.9
20260506024448 25 143 0.0 0.0 0.00 0.02 0.02 99 1015.8
20260506023944 25 143 0.0 0.0 0.00 0.02 0.02 99 1015.8
20260506023441 25 143 0.0 0.0 0.00 0.02 0.02 99 1015.9
20260506022938 25 143 0.0 0.0 0.00 0.02 0.02 99 1015.9
20260506022436 26 143 0.0 0.0 0.00 0.02 0.02 99 1015.6
20260506021934 26 143 0.0 0.0 0.00 0.02 0.02 99 1015.6
20260506021431 26 143 0.0 0.0 0.00 0.02 0.02 99 1015.2
20260506020927 26 143 0.0 0.0 0.00 0.02 0.02 99 1015.2
20260506020426 26 143 0.0 0.0 0.00 0.02 0.02 99 1015.2
20260506015922 26 143 0.0 0.0 0.00 0.02 0.02 99 1015.2
20260506015420 28 143 0.0 0.0 0.00 0.02 0.02 99 1015.1
20260506014916 28 143 0.0 0.0 0.00 0.02 0.02 99 1015.1
20260506014413 27 143 0.0 0.0 0.00 0.02 0.02 99 1014.9
20260506013910 27 143 0.0 0.0 0.00 0.02 0.02 99 1014.9
20260506013408 27 143 0.0 0.0 0.00 0.02 0.02 99 1015.1
20260506012904 27 143 0.0 0.0 0.00 0.02 0.02 99 1015.1
20260506012401 26 143 0.0 0.0 0.00 0.02 0.02 99 1014.7
20260506011858 26 143 0.0 0.0 0.00 0.02 0.02 99 1014.7
20260506011355 26 143 0.0 0.0 0.00 0.02 0.02 99 1014.7
20260506010852 26 143 0.0 0.0 0.00 0.02 0.02 99 1014.7
20260506010350 26 143 0.0 0.0 0.00 0.02 0.02 99 1014.6
20260506005847 26 143 0.0 0.0 0.00 0.02 0.02 99 1014.6
20260506005344 26 143 0.0 0.0 0.00 0.02 0.02 99 1014.8
20260506004839 26 143 0.0 0.0 0.00 0.02 0.02 99 1014.8
20260506004337 27 143 0.0 0.0 0.00 0.02 0.02 99 1014.8